Other Public Products
Issued by NWS Charleston, SC

Home | Current Version | Previous Version | Text Only | Print | Product List | Glossary On
Versions: 1 2 3 4 5 6 7 8 9 10 11 12 13 14 15 16 17 18 19 20 21 22 23 24 25 26 27 28 29 30 31 32 33 34 35 36 37 38 39 40 41 42 43 44 45 46 47 48 49 50
000
FPUS82 KCHS 261627
OPUCHS

TEST...KCHS/KSAV Gateway Observations...TEST
National Weather Service Charleston SC
1200 PM EDT FRI MAY 26 2017

NOTE: "fair" indicates few or no clouds below 12,000 feet with no
significant weather and/or obstructions to visibility.

SCZ050-WAZ558-NCZ071-TXZ119-213-PAZ071-DCZ001-FLZ074-172-MI076-
NYZ176-178-MAZ016-IL014-TNZ027-NJZ106-GAZ044-MD014-261700-

...Gateway Observations for Charleston International...

CITY           SKY/WX    TMP DP  RH WIND       PRES   REMARKS
Chas Airport   MOSUNNY   79  53  40 W13       30.01R
Seattle        SUNNY     62  51  67 W3        29.97S
Charlotte      MOSUNNY   74  53  48 S8        29.99R
Dallas DFW     MOSUNNY   88  72  58 SW22      29.76S HX  94
Dallas Love    MOSUNNY   86  70  58 S16G26    29.77F HX  90
Philladelphia  PTSUNNY   73  55  53 W15G24    29.66S
Wash National  PTSUNNY   71  58  63 W16G24    29.77R
Baltimore      PTSUNNY   72  58  61 W20G29    29.73R
Miami          MOSUNNY   89  73  59 VRB3      30.06F HX  97
Detroit        CLOUDY    62  53  72 W10       29.86R
Newark         PTSUNNY   72  57  59 SW17G25   29.58S
Laguardia      PTSUNNY   70  57  63 W12       29.58S
J F K          PTSUNNY   71  61  70 W12       29.60S
Boston Logan   CLOUDY    55  51  86 NW15      29.52R
Ft. Lauderdale MOSUNNY   86  72  62 VRB3      30.06S HX  92
Chicago O`Hare CLOUDY    69  54  58 E14       29.82F
Chicago Midway CLOUDY    67  55  65 E12       29.83F
Houston Bush   PTSUNNY   86  73  65 S16G22    29.92R HX  93
Houston Hobby  SUNNY     90  61  37 SW12      29.83F
Nashville      PTSUNNY   74  58  57 S3        30.00R
Atlanta        MOSUNNY   75  54  47 W10       30.06S

$$

GAZ044-118-TXZ119-213-NCZ071-DCZ001-MDZ014-506-PAZ021-071-NJZ106-
NYZ176-178-MAZ106-OHZ011-021-055-MIZ076-KYZ091-ILZ014-INZ047-
MNZ060-ONZ431-261700-

...Gateway Observations for Savannah International...

CITY           SKY/WX    TMP DP  RH WIND       PRES   REMARKS
Savannah Arpt  MOSUNNY   80  50  34 W10       30.04S
Atlanta        MOSUNNY   75  54  47 W10       30.06S
Charlotte      MOSUNNY   74  53  48 S8        29.99R
Dallas DFW     MOSUNNY   88  72  58 SW22      29.76S HX  94
Houston Bush   PTSUNNY   86  73  65 S16G22    29.92R HX  93
Wash National  PTSUNNY   71  58  63 W16G24    29.77R
Wash Dulles    CLOUDY    70  57  63 W13G18    29.78R
Baltimore      PTSUNNY   72  58  61 W20G29    29.73R
Philadelphia   PTSUNNY   73  55  53 W15G24    29.66S
Newark         PTSUNNY   72  57  59 SW17G25   29.58S
Laguardia      PTSUNNY   70  57  63 W12       29.58S
J F K          PTSUNNY   71  61  70 W12       29.60S
Boston         CLOUDY    55  51  86 NW15      29.52R
Pittsburg      LGT RAIN  58  56  93 NW14      29.83R
Akron          LGT RAIN  59  54  83 NW12      29.86R
Cleveland      CLOUDY    65  52  62 NW13G20   29.87R
Cincinnati     PTSUNNY   71  58  63 W12       29.94R
Columbus       PTSUNNY   69  55  59 W15       29.90R
Detroit        CLOUDY    62  53  72 W10       29.86R
Chicago O`Hare CLOUDY    69  54  58 E14       29.82F
Minneapolis    CLOUDY    67  54  63 S7        29.74S
Indianapolis   PTSUNNY   71  57  61 S6        29.89F
Toronto Canada PTSUNNY   64  54  68 NW8       29.70S

$$




USA.gov is the U.S. government's official web portal to all federal, state and local government web resources and services.